EW6393 Weather Reports


Display with metric or nautical units.
time (UTC)temp
F
wind
direction
speed
MPH
gust
MPH
rain 1hr
in
rain 24hr
in
rain mn
in
humidity
%
barometer
mb
20260503232117 75 286 1.0 5.0 0.00 0.00 0.00 15 1011.2
20260503231618 75 285 3.0 9.0 0.00 0.00 0.00 14 1011.2
20260503231119 75 250 4.0 9.0 0.00 0.00 0.00 14 1011.3
20260503230626 75 288 4.0 8.0 0.00 0.00 0.00 14 1011.3
20260503230126 75 234 3.0 6.0 0.00 0.00 0.00 14 1011.3
20260503225634 76 349 1.0 4.0 0.00 0.00 0.00 15 1011.5
20260503225136 76 319 1.0 5.0 0.00 0.00 0.00 14 1011.6
20260503224623 76 15 2.0 5.0 0.00 0.00 0.00 15 1011.6
20260503224124 76 2 1.0 5.0 0.00 0.00 0.00 14 1011.7
20260503223632 76 18 1.0 5.0 0.00 0.00 0.00 14 1011.8
20260503223113 75 31 1.0 3.0 0.00 0.00 0.00 14 1011.9
20260503222614 75 320 1.0 6.0 0.00 0.00 0.00 15 1011.9
20260503222121 75 281 2.0 6.0 0.00 0.00 0.00 14 1012.0
20260503221643 76 266 3.0 5.0 0.00 0.00 0.00 15 1012.0
20260503221151 76 319 2.0 7.0 0.00 0.00 0.00 14 1012.2
20260503220637 76 305 2.0 7.0 0.00 0.00 0.00 15 1012.3
20260503220117 77 356 1.0 5.0 0.00 0.00 0.00 15 1012.4
20260503215618 77 318 2.0 5.0 0.00 0.00 0.00 14 1012.6
20260503215126 77 340 1.0 3.0 0.00 0.00 0.00 15 1012.7
20260503214627 78 281 1.0 3.0 0.00 0.00 0.00 15 1012.8
20260503214127 77 257 0.0 3.0 0.00 0.00 0.00 15 1012.9
20260503213636 77 191 1.0 4.0 0.00 0.00 0.00 16 1013.0
20260503213116 76 183 2.0 4.0 0.00 0.00 0.00 15 1013.1
20260503212617 76 87 2.0 4.0 0.00 0.00 0.00 15 1013.1
20260503212118 76 181 0.0 4.0 0.00 0.00 0.00 14 1013.2
20260503211624 75 252 2.0 9.0 0.00 0.00 0.00 14 1013.3
20260503211126 76 217 4.0 9.0 0.00 0.00 0.00 15 1013.4
20260503210633 77 279 1.0 5.0 0.00 0.00 0.00 15 1013.5
20260503210120 77 188 1.0 4.0 0.00 0.00 0.00 14 1013.5
20260503205620 77 31 1.0 5.0 0.00 0.00 0.00 16 1013.7
20260503205121 78 276 1.0 7.0 0.00 0.00 0.00 14 1013.7
20260503204629 79 207 3.0 7.0 0.00 0.00 0.00 14 1013.7
20260503204130 79 191 3.0 6.0 0.00 0.00 0.00 14 1013.7
20260503203611 79 256 1.0 6.0 0.00 0.00 0.00 13 1013.7
20260503203119 78 221 3.0 6.0 0.00 0.00 0.00 14 1013.8
20260503202620 77 85 2.0 7.0 0.00 0.00 0.00 15 1013.8
20260503202128 76 49 2.0 7.0 0.00 0.00 0.00 13 1014.0
20260503201629 76 286 2.0 7.0 0.00 0.00 0.00 14 1014.1
20260503201130 75 29 1.0 4.0 0.00 0.00 0.00 15 1014.2
20260503200638 74 276 2.0 4.0 0.00 0.00 0.00 13 1014.4
20260503200118 74 229 1.0 2.0 0.00 0.00 0.00 14 1014.4
20260503195618 74 155 0.0 3.0 0.00 0.00 0.00 14 1014.5
20260503195126 74 245 1.0 3.0 0.00 0.00 0.00 15 1014.6
20260503194627 74 246 1.0 5.0 0.00 0.00 0.00 15 1014.7
20260503194129 74 227 2.0 5.0 0.00 0.00 0.00 14 1014.7
20260503193636 75 148 1.0 4.0 0.00 0.00 0.00 15 1014.8
20260503193118 75 141 1.0 5.0 0.00 0.00 0.00 16 1014.9
20260503192625 75 205 1.0 5.0 0.00 0.00 0.00 17 1014.9
20260503192147 75 225 1.0 5.0 0.00 0.00 0.00 16 1015.0
20260503191634 75 174 1.0 4.0 0.00 0.00 0.00 15 1015.0
20260503191116 75 239 1.0 5.0 0.00 0.00 0.00 16 1015.1
20260503190615 75 212 1.0 7.0 0.00 0.00 0.00 16 1015.2
20260503190142 75 283 4.0 7.0 0.00 0.00 0.00 16 1015.1
20260503185650 76 223 2.0 7.0 0.00 0.00 0.00 16 1015.3
20260503185158 76 207 1.0 5.0 0.00 0.00 0.00 17 1015.3
20260503184618 76 145 2.0 5.0 0.00 0.00 0.00 15 1015.3
20260503184138 77 261 2.0 5.0 0.00 0.00 0.00 16 1015.4
20260503183645 76 213 2.0 5.0 0.00 0.00 0.00 14 1015.5
20260503183134 76 207 2.0 6.0 0.00 0.00 0.00 16 1015.6
20260503182614 76 153 2.0 6.0 0.00 0.00 0.00 18 1015.6
20260503182115 75 165 3.0 5.0 0.00 0.00 0.00 18 1015.7
20260503181622 75 77 3.0 4.0 0.00 0.00 0.00 17 1015.8
20260503181123 75 274 1.0 3.0 0.00 0.00 0.00 18 1015.9
20260503180651 75 224 1.0 3.0 0.00 0.00 0.00 22 1016.0
20260503180111 74 209 1.0 5.0 0.00 0.00 0.00 23 1016.0
20260503175618 73 27 1.0 5.0 0.00 0.00 0.00 20 1016.1
20260503175119 73 219 1.0 4.0 0.00 0.00 0.00 19 1016.1
20260503174617 73 349 1.0 7.0 0.00 0.00 0.00 21 1016.2
20260503174125 72 231 2.0 7.0 0.00 0.00 0.00 23 1016.2
20260503173627 72 243 2.0 4.0 0.00 0.00 0.00 21 1016.3
20260503173114 72 122 2.0 4.0 0.00 0.00 0.00 20 1016.3
20260503172615 72 158 1.0 3.0 0.00 0.00 0.00 21 1016.4
20260503172123 71 161 1.0 3.0 0.00 0.00 0.00 18 1016.5
20260503171619 71 134 1.0 3.0 0.00 0.00 0.00 20 1016.5
20260503171124 70 128 1.0 3.0 0.00 0.00 0.00 20 1016.5
20260503170652 70 269 1.0 3.0 0.00 0.00 0.00 21 1016.5
20260503170111 70 103 0.0 4.0 0.00 0.00 0.00 22 1016.5
20260503160134 68 311 0.0 3.0 0.00 0.00 0.00 24 1016.8
20260503150634 62 129 0.0 2.0 0.00 0.00 0.00 31 1017.2
20260503150113 62 58 1.0 2.0 0.00 0.00 0.00 30 1017.2
20260503140122 56 25 0.0 1.0 0.00 0.00 0.00 34 1016.9
20260503131130 52 70 0.0 2.0 0.00 0.00 0.00 39 1016.4
20260503130611 52 70 1.0 2.0 0.00 0.00 0.00 39 1016.5
20260503130119 52 70 1.0 2.0 0.00 0.00 0.00 39 1016.6
20260503120119 53 68 1.0 2.0 0.00 0.00 0.00 36 1016.5
20260503110635 56 66 0.0 2.0 0.00 0.00 0.00 32 1016.8
20260503110122 56 66 1.0 2.0 0.00 0.00 0.00 31 1016.9
20260503100150 56 64 0.0 1.0 0.00 0.00 0.00 33 1016.9
20260503090150 57 76 0.0 2.0 0.00 0.00 0.00 29 1017.0
20260503081617 54 81 1.0 1.0 0.00 0.00 0.00 33 1017.2
20260503081118 55 82 1.0 1.0 0.00 0.00 0.00 34 1017.2
20260503080625 55 82 0.0 1.0 0.00 0.00 0.00 34 1017.2
20260503080127 54 86 1.0 1.0 0.00 0.00 0.00 33 1017.1
20260503072617 57 66 1.0 2.0 0.00 0.00 0.00 30 1017.2
20260503072145 57 68 1.0 2.0 0.00 0.00 0.00 30 1017.2
20260503071652 57 81 0.0 2.0 0.00 0.00 0.00 29 1017.1
20260503071112 57 94 1.0 2.0 0.00 0.00 0.00 30 1017.1
20260503070613 57 60 0.0 2.0 0.00 0.00 0.00 29 1017.1
20260503070140 57 60 1.0 2.0 0.00 0.00 0.00 30 1017.1
20260503060131 58 48 1.0 2.0 0.00 0.00 0.00 28 1017.0
20260503055113 57 45 1.0 1.0 0.00 0.00 0.00 29 1017.0
20260503054621 58 29 1.0 1.0 0.00 0.00 0.00 29 1017.0
20260503054121 57 28 0.0 1.0 0.00 0.00 0.00 29 1017.0
20260503053649 58 28 0.0 1.0 0.00 0.00 0.00 29 1017.0
20260503053129 58 28 0.0 4.0 0.00 0.00 0.00 28 1017.1
20260503052630 58 2 1.0 4.0 0.00 0.00 0.00 29 1017.0
20260503052111 58 56 1.0 1.0 0.00 0.00 0.00 28 1017.1
20260503051640 58 65 1.0 2.0 0.00 0.00 0.00 29 1017.1
20260503051146 59 65 0.0 2.0 0.00 0.00 0.00 28 1017.1
20260503050627 59 91 1.0 1.0 0.00 0.00 0.00 28 1017.2
20260503050113 59 61 0.0 1.0 0.00 0.00 0.00 27 1017.1
20260503045614 59 61 0.0 1.0 0.00 0.00 0.00 27 1017.1
20260503045142 59 56 1.0 1.0 0.00 0.00 0.00 27 1017.1
20260503044622 58 34 0.0 0.0 0.00 0.00 0.00 29 1017.2
20260503044123 58 262 0.0 1.0 0.00 0.00 0.00 29 1017.2
20260503043632 59 262 0.0 1.0 0.00 0.00 0.00 29 1017.1
20260503043112 59 66 0.0 1.0 0.00 0.00 0.00 28 1017.1
20260503042620 60 66 0.0 1.0 0.00 0.00 0.00 27 1017.1
20260503042122 60 66 0.0 1.0 0.00 0.00 0.00 28 1017.1
20260503041623 60 66 1.0 1.0 0.00 0.00 0.00 28 1017.2
20260503041131 60 66 0.0 1.0 0.00 0.00 0.00 28 1017.1
20260503040612 60 66 0.0 2.0 0.00 0.00 0.00 27 1017.1
20260503040111 61 111 1.0 2.0 0.00 0.00 0.00 26 1017.2
20260503035620 60 86 1.0 2.0 0.00 0.00 0.00 26 1017.1
20260503035120 60 72 0.0 1.0 0.00 0.00 0.00 27 1017.0
20260503034648 60 31 0.0 1.0 0.00 0.00 0.00 27 1017.0
20260503034128 60 7 0.0 1.0 0.00 0.00 0.00 28 1017.0
20260503033616 60 7 0.0 2.0 0.00 0.00 0.00 27 1016.9
20260503033138 60 6 0.0 2.0 0.00 0.00 0.00 27 1016.9
20260503032625 61 64 0.0 1.0 0.00 0.00 0.00 28 1016.9
20260503032126 62 64 0.0 2.0 0.00 0.00 0.00 27 1016.9
20260503031636 62 64 1.0 2.0 0.00 0.00 0.00 26 1016.8
20260503031114 62 84 0.0 1.0 0.00 0.00 0.00 28 1016.8
20260503030614 62 84 0.0 1.0 0.00 0.00 0.00 28 1016.7
20260503030122 62 113 1.0 1.0 0.00 0.00 0.00 28 1016.7
20260503025624 63 124 0.0 1.0 0.00 0.00 0.00 28 1016.7
20260503025132 63 120 0.0 1.0 0.00 0.00 0.00 28 1016.8
20260503024612 63 85 0.0 1.0 0.00 0.00 0.00 27 1016.7
20260503024113 63 85 1.0 1.0 0.00 0.00 0.00 28 1016.7
20260503023637 64 108 0.0 2.0 0.00 0.00 0.00 27 1016.7
20260503023117 64 72 1.0 2.0 0.00 0.00 0.00 27 1016.5
20260503022645 65 42 0.0 1.0 0.00 0.00 0.00 26 1016.5
20260503022131 65 354 0.0 1.0 0.00 0.00 0.00 26 1016.5
20260503021611 66 288 0.0 0.0 0.00 0.00 0.00 25 1016.5
20260503021113 67 288 0.0 4.0 0.00 0.00 0.00 23 1016.5
20260503020640 67 288 0.0 4.0 0.00 0.00 0.00 23 1016.5
20260503020126 67 315 0.0 2.0 0.00 0.00 0.00 23 1016.5
20260503015628 68 295 0.0 4.0 0.00 0.00 0.00 23 1016.4
20260503015155 68 255 1.0 4.0 0.00 0.00 0.00 22 1016.5
20260503014615 68 311 0.0 5.0 0.00 0.00 0.00 22 1016.5
20260503014115 69 302 2.0 5.0 0.00 0.00 0.00 21 1016.5
20260503013643 69 319 0.0 7.0 0.00 0.00 0.00 23 1016.5
20260503013123 69 302 1.0 7.0 0.00 0.00 0.00 21 1016.5
20260503012632 69 277 2.0 7.0 0.00 0.00 0.00 21 1016.5
20260503012133 69 295 3.0 8.0 0.00 0.00 0.00 20 1016.5
20260503011614 70 328 1.0 5.0 0.00 0.00 0.00 20 1016.5
20260503011122 70 321 2.0 8.0 0.00 0.00 0.00 20 1016.5
20260503010624 70 252 4.0 8.0 0.00 0.00 0.00 20 1016.4
20260503010130 71 249 2.0 7.0 0.00 0.00 0.00 20 1016.4
20260503005611 71 323 3.0 7.0 0.00 0.00 0.00 20 1016.4
20260503005132 71 328 1.0 4.0 0.00 0.00 0.00 19 1016.5
20260503004619 72 323 1.0 5.0 0.00 0.00 0.00 20 1016.4
20260503004120 72 285 1.0 6.0 0.00 0.00 0.00 20 1016.5
20260503003628 72 302 2.0 6.0 0.00 0.00 0.00 19 1016.5
20260503003129 73 260 2.0 7.0 0.00 0.00 0.00 19 1016.5
20260503002630 72 262 3.0 10.0 0.00 0.00 0.00 18 1016.5
20260503002111 73 266 4.0 10.0 0.00 0.00 0.00 18 1016.5
20260503001638 73 245 3.0 8.0 0.00 0.00 0.00 19 1016.4
20260503001125 73 285 5.0 8.0 0.00 0.00 0.00 18 1016.5
20260503000641 73 257 3.0 9.0 0.00 0.00 0.00 17 1016.5
20260503000129 74 356 4.0 10.0 0.00 0.00 0.00 18 1016.5
20260502235630 74 283 3.0 6.0 0.00 0.00 0.00 18 1016.6
20260502235110 74 1 2.0 10.0 0.00 0.00 0.00 17 1016.6
20260502234618 73 255 5.0 10.0 0.00 0.00 0.00 17 1016.6
20260502234120 73 276 2.0 6.0 0.00 0.00 0.00 17 1016.7
20260502233621 74 269 3.0 6.0 0.00 0.00 0.00 17 1016.7
20260502233130 74 302 3.0 10.0 0.00 0.00 0.00 17 1016.7
20260502232611 74 304 3.0 10.0 0.00 0.00 0.00 15 1016.8